[[{"header":{"parameterUnit":"m.s-1","parameterCategory":1,"la1":30.2991,"la2":30.254,"lo1":-89.0895,"lo2":-89.0444,"dy":0.0017,"dx":0.0017,"nx":28,"ny":28,"refTime":"2024-06-07T09:00:00:Z","depth":0,"parameterNumber":2,"parameterNumberName":"U-component_of_WINDS"},"data":[0,0,0,0,0,0,0,0,0,0,0,0,0,0,0,0,0,0,0,0,0,0,0,0,0,0,0,0,0,0,0,0,0,0,0,0,0,0,0,0,0,0,0,0,0,0,0,0,0,0,0,0,0,0,0,0,0,0,-2.5721,-2.5721,0,-2.5706,-2.5706,-2.5706,-2.5643,-2.5642,-2.564,-2.5639,-2.5624,-2.5625,-2.5626,0,0,0,0,0,0,0,0,0,0,0,0,0,-2.5699,-2.57,-2.5721,-2.5721,-2.5721,-2.5706,-2.5706,-2.5706,-2.5644,-2.5642,-2.564,-2.5638,-2.5624,-2.5625,-2.5626,0,0,0,0,0,0,0,0,0,0,0,0,0,-2.5699,-2.57,-2.5721,-2.5688,-2.5685,-2.5706,-2.5706,-2.5706,-2.5644,-2.5642,-2.564,-2.5638,-2.5623,-2.5625,-2.5626,-2.5678,0,0,-2.563,-2.5631,0,0,0,0,0,0,0,0,-2.5699,-2.57,-2.5693,-2.569,-2.5687,-2.5674,-2.5692,-2.5696,-2.5644,-2.566,-2.5639,-2.5637,-2.5643,-2.5642,-2.5644,-2.5677,-2.5677,-2.5631,-2.5631,-2.5632,-2.5632,0,0,0,0,0,0,0,-2.5699,-2.57,-2.5715,-2.5693,-2.5689,-2.5675,-2.5672,-2.5693,-2.5663,-2.5658,-2.5653,-2.5653,-2.564,-2.5643,-2.5643,-2.5677,-2.563,-2.5632,-2.5633,-2.5633,-2.5753,-2.5755,0,0,0,0,0,0,-2.5703,-2.57,-2.5716,-2.5715,-2.5688,-2.5677,-2.5674,-2.5681,-2.5663,-2.5658,-2.5654,-2.565,-2.5642,-2.5642,-2.5643,-2.5701,-2.5632,-2.5633,-2.5634,-2.5751,-2.5753,-2.5756,0,0,0,0,0,0,-2.5703,-2.5705,-2.5716,-2.5706,-2.5707,-2.568,-2.5687,-2.5681,-2.5684,-2.566,-2.5655,-2.5662,-2.564,-2.5641,-2.567,-2.57,-2.5634,-2.5635,-2.5748,-2.5752,-2.5755,-2.5821,0,0,0,0,0,0,-2.5703,-2.5706,-2.5724,-2.5707,-2.5707,-2.5743,-2.5689,-2.5683,-2.5686,-2.568,-2.5666,-2.5662,-2.5638,-2.5668,-2.5671,-2.5701,-2.5636,-2.5745,-2.5749,-2.5754,-2.5815,-2.5826,-2.5835,0,0,0,0,0,-2.5702,-2.5743,-2.5725,-2.5727,-2.573,-2.5745,-2.5745,-2.5717,-2.5689,-2.5708,-2.5693,-2.5662,-2.5698,-2.5672,-2.5675,-2.5705,-2.5743,-2.5748,-2.5753,-2.5811,-2.5824,-2.5835,0,0,0,0,0,0,-2.5763,-2.574,-2.572,-2.5757,-2.5753,-2.5734,-2.5756,-2.5731,-2.5736,-2.573,-2.5696,-2.5693,-2.5727,-2.572,-2.5691,-2.5755,-2.5715,-2.5721,-2.5758,-2.577,-2.5779,-2.5779,-2.5638,0,0,0,0,0,-2.5782,-2.5795,-2.5774,-2.5809,-2.5808,-2.5784,-2.5789,-2.5768,-2.5763,-2.5761,-2.5749,-2.5745,-2.5756,-2.5763,-2.5771,-2.5816,-2.5812,-2.5839,-2.5849,-2.5857,-2.5861,-2.5884,-2.5896,-2.5773,-2.5773,-2.5773,0,0,-2.5818,-2.5807,-2.5818,-2.5821,-2.5816,-2.5831,-2.5782,-2.58,-2.5811,-2.5764,-2.579,-2.5782,-2.5776,-2.5813,-2.5829,-2.5808,-2.5895,-2.5863,-2.587,-2.587,-2.5891,-2.5902,-2.5913,-2.5777,-2.5776,-2.5776,0,0,-2.5892,-2.5886,-2.5913,-2.591,-2.5904,-2.5887,-2.5895,-2.588,-2.5872,-2.5899,-2.5864,-2.5878,-2.5897,-2.5894,-2.5895,-2.5973,-2.5944,-2.5977,-2.6026,-2.6049,-2.6058,-2.6067,-2.6093,-2.6103,-2.5983,-2.5983,-2.5983,0,-2.5938,-2.5959,-2.5931,-2.5952,-2.5954,-2.5914,-2.5942,-2.5941,-2.5937,-2.594,-2.5918,-2.5941,-2.5935,-2.5971,-2.599,-2.5993,-2.6,-2.5976,-2.6059,-2.6068,-2.6075,-2.6099,-2.611,-2.5987,-2.5986,-2.5986,-2.5986,0,-2.6015,-2.6031,-2.6055,-2.6052,-2.6059,-2.6083,-2.606,-2.607,-2.605,-2.6037,-2.6065,-2.6057,-2.6063,-2.6071,-2.6052,-2.6105,-2.6092,-2.6066,-2.6023,-2.6091,-2.6113,-2.6123,-2.5992,-2.5991,-2.599,-2.5989,0,0,-2.6122,-2.6107,-2.6116,-2.6115,-2.6107,-2.6119,-2.6143,-2.6149,-2.6158,-2.6159,-2.6178,-2.6197,-2.6172,-2.6174,-2.6155,-2.6176,-2.6237,-2.6146,-2.6146,-2.6161,-2.6294,-2.6312,-2.6323,-2.622,-2.6222,-2.6223,-2.6294,0,-2.6191,-2.6229,-2.6206,-2.6248,-2.6263,-2.6227,-2.6248,-2.6246,-2.6236,-2.6247,-2.6236,-2.6249,-2.6217,-2.6218,-2.6237,-2.6225,-2.6262,-2.622,-2.6236,-2.6237,-2.6234,-2.6335,-2.6353,-2.642,-2.6303,-2.6304,-2.6305,0,-2.6274,-2.6279,-2.6322,-2.6313,-2.6318,-2.6337,-2.6342,-2.6354,-2.6352,-2.6343,-2.6347,-2.6324,-2.6348,-2.631,-2.6342,-2.6314,-2.632,-2.6316,-2.6318,-2.6315,-2.6272,-2.6332,-2.6441,-2.645,-2.6319,-2.6318,-2.6317,0,-2.6345,-2.6363,-2.6391,-2.6392,-2.6382,-2.6396,-2.6393,-2.6389,-2.6395,-2.6401,-2.6404,-2.6413,-2.6417,-2.6425,-2.6405,-2.6379,-2.644,-2.64,-2.6432,-2.6433,-2.6443,-2.6441,-2.6551,-2.6453,-2.6453,-2.6452,-2.6452,0,-2.6421,-2.6448,-2.6422,-2.6439,-2.647,-2.6446,-2.6477,-2.647,-2.6468,-2.6483,-2.6455,-2.6471,-2.6445,-2.6459,-2.6444,-2.6473,-2.6476,-2.6469,-2.6464,-2.6469,-2.647,-2.647,-2.6463,-2.6455,-2.6454,-2.6454,-2.6453,0,-2.6503,-2.6487,-2.6515,-2.6505,-2.6503,-2.6526,-2.6517,-2.6533,-2.6523,-2.6544,-2.6547,-2.6531,-2.6545,-2.6528,-2.6541,-2.6531,-2.657,-2.656,-2.657,-2.6566,-2.6598,-2.6594,-2.6707,-2.672,-2.6617,-2.6618,-2.6619,0,-2.655,-2.6571,-2.6564,-2.6572,-2.6571,-2.6585,-2.6592,-2.6571,-2.6579,-2.658,-2.6596,-2.6609,-2.6617,-2.6643,-2.6632,-2.6642,-2.663,-2.667,-2.6631,-2.6637,-2.6628,-2.6626,-2.6627,-2.6676,-2.6677,-2.6678,-2.6679,0,-2.6636,-2.6628,-2.6638,-2.6647,-2.6656,-2.6661,-2.6665,-2.6674,-2.6652,-2.6663,-2.6678,-2.6685,-2.6699,-2.6712,-2.672,-2.6718,-2.6695,-2.6693,-2.67,-2.6703,-2.6707,-2.6703,-2.6588,-2.6689,-2.6688,-2.6687,-2.6686,-2.6686,-2.67,-2.6717,-2.6715,-2.6728,-2.6729,-2.6734,-2.6748,-2.6741,-2.6753,-2.6763,-2.6751,-2.6769,-2.677,-2.6778,-2.6779,-2.6794,-2.6777,-2.6788,-2.679,-2.6792,-2.6796,-2.6709,-2.6795,-2.6795,-2.6795,-2.6795,-2.6794,0,-2.6782,-2.6781,-2.6793,-2.6799,-2.681,-2.679,-2.6794,-2.6804,-2.6821,-2.6823,-2.6833,-2.6851,-2.6864,-2.6857,-2.6868,-2.6881,-2.6871,-2.6885,-2.6882,-2.6881,-2.6812,-2.6803,-2.6893,-2.6893,-2.6893,-2.6893,-2.6893,-2.6893,-2.6826,-2.6853,-2.6846,-2.6874,-2.6872,-2.689,-2.6893,-2.6898,-2.69,-2.6921,-2.6932,-2.6928,-2.6927,-2.6938,-2.695,-2.6948,-2.6952,-2.6969,-2.6962,-2.6896,-2.6886,-2.6877,-2.6868,-2.6971,-2.6971,-2.703,-2.7031,-2.7031]},{"header":{"parameterUnit":"m.s-1","parameterCategory":1,"la1":30.2991,"la2":30.254,"lo1":-89.0895,"lo2":-89.0444,"dy":0.0017,"dx":0.0017,"nx":28,"ny":28,"refTime":"2024-06-07T09:00:00:Z","depth":0,"parameterNumber":3,"parameterNumberName":"V-component_of_WINDS"},"data":[0,0,0,0,0,0,0,0,0,0,0,0,0,0,0,0,0,0,0,0,0,0,0,0,0,0,0,0,0,0,0,0,0,0,0,0,0,0,0,0,0,0,0,0,0,0,0,0,0,0,0,0,0,0,0,0,0,0,3.5104,3.5104,0,3.5109,3.5109,3.5109,3.5149,3.515,3.5151,3.5152,3.5151,3.515,3.5149,0,0,0,0,0,0,0,0,0,0,0,0,0,3.5126,3.5126,3.5104,3.5104,3.5104,3.5109,3.5109,3.5109,3.5149,3.5151,3.5152,3.5153,3.5152,3.5151,3.5149,0,0,0,0,0,0,0,0,0,0,0,0,0,3.5122,3.5126,3.5104,3.5125,3.5127,3.5109,3.5109,3.5109,3.5149,3.5151,3.5152,3.5154,3.5152,3.5151,3.5149,3.5109,0,0,3.5145,3.5144,0,0,0,0,0,0,0,0,3.5122,3.5121,3.5122,3.5124,3.5126,3.513,3.5116,3.5109,3.5149,3.514,3.5152,3.5154,3.5143,3.5142,3.5139,3.5109,3.5109,3.5145,3.5144,3.5143,3.5143,0,0,0,0,0,0,0,3.5123,3.5121,3.5106,3.5122,3.5124,3.5133,3.5134,3.5115,3.5133,3.5141,3.5144,3.5145,3.5144,3.5141,3.514,3.5109,3.5145,3.5143,3.5142,3.5142,3.5048,3.5046,0,0,0,0,0,0,3.5121,3.5121,3.5106,3.5106,3.5128,3.5131,3.5133,3.5127,3.5133,3.5136,3.5143,3.5146,3.5142,3.5141,3.514,3.5094,3.5143,3.5142,3.5141,3.5049,3.5047,3.5045,0,0,0,0,0,0,3.5121,3.5119,3.5105,3.5115,3.5114,3.5129,3.5123,3.5126,3.5123,3.5135,3.5137,3.5137,3.5144,3.5142,3.5117,3.5094,3.5141,3.514,3.5051,3.5049,3.5046,3.5002,0,0,0,0,0,0,3.5121,3.5119,3.5105,3.5114,3.5113,3.5084,3.5121,3.5125,3.5121,3.5125,3.5129,3.5131,3.5145,3.5119,3.5116,3.5093,3.5138,3.5053,3.505,3.5047,3.5005,3.4998,3.4992,0,0,0,0,0,3.5122,3.509,3.5104,3.5101,3.5096,3.5082,3.5082,3.5099,3.5119,3.5105,3.5112,3.5131,3.5098,3.5116,3.5113,3.5089,3.5055,3.5051,3.5047,3.5008,3.4999,3.4992,0,0,0,0,0,0,3.5075,3.5092,3.5107,3.5077,3.5078,3.5089,3.5071,3.5089,3.5083,3.5087,3.5107,3.5108,3.508,3.5082,3.5103,3.5052,3.508,3.5075,3.5051,3.5043,3.5036,3.5036,3.5137,0,0,0,0,0,3.5062,3.5051,3.5066,3.5038,3.5038,3.5055,3.5049,3.5063,3.5064,3.5064,3.507,3.5069,3.5059,3.5051,3.5042,3.5006,3.5008,3.4989,3.4982,3.4977,3.4972,3.4954,3.4946,3.5034,3.5034,3.5034,0,0,3.5033,3.5041,3.5032,3.5029,3.5032,3.5019,3.5055,3.5039,3.503,3.5062,3.5039,3.5044,3.5044,3.5014,3.5001,3.5015,3.4948,3.4972,3.4967,3.4966,3.4949,3.4941,3.4934,3.5031,3.5032,3.5032,0,0,3.4974,3.498,3.4958,3.496,3.4965,3.4976,3.4971,3.498,3.4985,3.4963,3.4987,3.4976,3.4957,3.4957,3.4954,3.4898,3.4915,3.4894,3.4859,3.4841,3.4834,3.4828,3.4808,3.4801,3.489,3.489,3.489,0,3.4937,3.4921,3.4944,3.4928,3.4926,3.4957,3.4934,3.4935,3.4935,3.4932,3.4949,3.4927,3.4929,3.49,3.4887,3.4884,3.4878,3.4893,3.4834,3.4828,3.4822,3.4803,3.4796,3.4887,3.4887,3.4888,3.4888,0,3.4876,3.4864,3.4846,3.4848,3.4844,3.4825,3.4843,3.4836,3.4851,3.486,3.4838,3.4843,3.4835,3.483,3.4843,3.4803,3.4811,3.483,3.4859,3.4811,3.4794,3.4787,3.4883,3.4884,3.4885,3.4886,0,0,3.4785,3.4803,3.4795,3.4798,3.4806,3.4796,3.4779,3.4774,3.4767,3.4767,3.4752,3.4737,3.4756,3.4752,3.4766,3.4751,3.4706,3.4772,3.4772,3.4759,3.4662,3.4648,3.4639,3.4719,3.4717,3.4716,3.4662,0,3.4729,3.4702,3.4722,3.4691,3.468,3.471,3.4695,3.4698,3.4707,3.4698,3.4707,3.4696,3.4722,3.472,3.4706,3.4715,3.4687,3.4719,3.4704,3.4703,3.4702,3.463,3.4614,3.4562,3.4656,3.4654,3.4654,0,3.4659,3.4659,3.4627,3.4639,3.4635,3.4621,3.4619,3.4611,3.4615,3.4622,3.462,3.4639,3.4621,3.465,3.4626,3.4648,3.4643,3.4646,3.4645,3.4643,3.4675,3.4625,3.4546,3.4538,3.4643,3.4644,3.4645,0,3.4597,3.4588,3.4568,3.4569,3.4582,3.4572,3.4576,3.4582,3.4578,3.4576,3.4574,3.4569,3.4566,3.4561,3.4578,3.4597,3.4551,3.4582,3.4556,3.4556,3.4544,3.4544,3.4462,3.4542,3.4542,3.4542,3.4543,0,3.4532,3.451,3.454,3.4528,3.4505,3.4529,3.4506,3.4513,3.4519,3.4507,3.4533,3.4521,3.4544,3.4535,3.4547,3.4525,3.4524,3.4529,3.4532,3.4526,3.4525,3.4522,3.4526,3.454,3.4541,3.4541,3.4542,0,3.4457,3.4476,3.4457,3.4472,3.4475,3.4458,3.4471,3.4459,3.4471,3.4457,3.4454,3.4472,3.4463,3.4479,3.447,3.4479,3.4449,3.4458,3.4448,3.4451,3.4424,3.4427,3.4337,3.4326,3.4413,3.4412,3.4412,0,3.4414,3.4399,3.4414,3.4409,3.4413,3.4405,3.4403,3.4426,3.4421,3.4426,3.4414,3.4407,3.4403,3.4386,3.4397,3.4392,3.44,3.437,3.4399,3.4394,3.44,3.44,3.4399,3.4363,3.4362,3.4361,3.436,0,3.4335,3.4346,3.4342,3.4342,3.4338,3.4338,3.434,3.4335,3.4359,3.4353,3.4345,3.4342,3.4336,3.4328,3.4326,3.4329,3.4348,3.4351,3.4345,3.4338,3.4333,3.4335,3.4431,3.4353,3.4353,3.4354,3.4354,3.4355,3.4275,3.4263,3.4273,3.4267,3.4272,3.4274,3.4264,3.4276,3.427,3.4268,3.4282,3.4271,3.4276,3.4275,3.4277,3.4268,3.4281,3.4272,3.427,3.4267,3.4263,3.4335,3.4267,3.4268,3.4268,3.4268,3.4268,0,3.4197,3.4205,3.4201,3.4204,3.42,3.4221,3.4225,3.422,3.421,3.4215,3.4211,3.4202,3.4196,3.4207,3.4203,3.4193,3.4202,3.4191,3.4192,3.4192,3.4251,3.4257,3.4184,3.4184,3.4184,3.4184,3.4184,3.4184,3.4156,3.4138,3.4151,3.4135,3.4143,3.4134,3.4135,3.4136,3.414,3.4129,3.4125,3.4134,3.4141,3.4137,3.4132,3.4136,3.4133,3.4119,3.4125,3.418,3.4188,3.4196,3.4201,3.4118,3.4118,3.4067,3.4067,3.4066]}]]